Regional Weather Roundup
Issued by NWS Charleston, WV

Home | Current Version | Previous Version | Graphics & Text | Print | Product List | Glossary On
Versions: 1 2 3 4 5 6 7 8 9 10 11 12 13 14 15 16 17 18 19 20 21 22 23 24 25 26 27
000
ASUS41 KRLX 141610
RWRRLX
West Virginia Regional Weather Roundup
National Weather Service Charleston WV
1100 AM EST THU DEC 14 2017

Note: "fair" indicates few or no clouds below 12,000 feet with no
significant weather and/or obstructions to visibility.

WVZ003-141700-
Northern Panhandle of West Virginia

CITY           SKY/WX    TMP DP  RH WIND       PRES   REMARKS
WHEELING       LGT SNOW  24  20  84 N7        29.94R VSB 1
$$

WVZ009-141700-
Northwest West Virginia

CITY           SKY/WX    TMP DP  RH WIND       PRES   REMARKS
PARKERSBURG    CLOUDY    30  21  69 VRB6      29.99S
$$

WVZ006-141700-
Western West Virginia

CITY           SKY/WX    TMP DP  RH WIND       PRES   REMARKS
HUNTINGTON     CLOUDY    32  20  61 N9        29.97R
$$

WVZ015-141700-
West Central West Virginia

CITY           SKY/WX    TMP DP  RH WIND       PRES   REMARKS
CHARLESTON     CLOUDY    33  21  61 N10       29.94R
$$

WVZ022-031-141700-
North Central West Virginia

CITY           SKY/WX    TMP DP  RH WIND       PRES   REMARKS
CLARKSBURG     LGT SNOW  29  24  82 W3        29.92R
MORGANTOWN     CLOUDY    29  20  69 VRB6      29.92R
$$

WVZ025-035-042-045-141700-
Southern West Virginia

CITY           SKY/WX    TMP DP  RH WIND       PRES   REMARKS
BECKLEY        CLOUDY    30  18  60 NW13      29.84R
LOGAN          CLOUDY    34  21  60 CALM      29.90R
BLUEFIELD      CLOUDY    30  20  66 NW10G18   29.83R
LEWISBURG      CLOUDY    32  20  59 NW13G21   29.84S
$$

WVZ047-141700-
Northern Mountains of West Virginia

CITY           SKY/WX    TMP DP  RH WIND       PRES   REMARKS
ELKINS         LGT SNOW  27  20  75 NW9       29.87R
$$

WVZ052-141700-
Eastern Panhandle of West Virginia

CITY           SKY/WX    TMP DP  RH WIND       PRES   REMARKS
MARTINSBURG    MOSUNNY   35  17  47 NW17G24   29.85R
PETERSBURG     MOSUNNY   35  18  50 W14G24    29.86R
$$




USA.gov is the U.S. government's official web portal to all federal, state and local government web resources and services.